Hourly Weather Roundup
Issued by NWS Central Illinois

Home | Current Version | Previous Version | Text Only | Print | Product List | Glossary On
Versions: 1 2 3 4 5 6 7 8 9 10 11 12 13 14 15 16 17 18 19 20 21 22 23 24 25 26 27 28 29 30 31 32 33 34 35 36 37 38 39 40 41 42 43 44 45 46 47 48 49 50
874
NZUS43 KILX 192210
HWRILX

Area Weather Roundup
National Weather Service Lincoln IL
500 PM CDT THU OCT 19 2017

NOTE:  "FAIR" indicates few or no clouds below 12,000 feet, with
       no sigificant weather and/or obstructions to visibility.


CITY           SKY/WX    TMP DP  RH WIND       PRES   REMARKS
Bloomington    SUNNY     74  54  49 S5        30.15F
Champaign      SUNNY     79  49  34 SW9       30.15S
Danville       SUNNY     75  51  42 CALM      30.13F
Decatur        SUNNY     76  51  41 S8        30.15S
Effingham      SUNNY     77  50  38 SE5       30.17S
Flora          SUNNY     78  53  41 SW6       30.17S
Galesburg      SUNNY     80  61  52 SE6       30.12F HX  81
Jacksonville   SUNNY     77  50  38 S7        30.13S
Lacon          SUNNY     74  51  45 S3        30.12S
Lawrenceville  SUNNY     76  52  43 S6        30.18S
Litchfield       N/A     76  49  39 S6        30.15S HAZE
$$


CITY           SKY/WX    TMP DP  RH WIND       PRES   REMARKS
Lincoln        SUNNY     78  54  42 SW5       30.13S
Macomb         SUNNY     77  51  40 S8        30.13S
Mattoon        SUNNY     75  52  44 SW6       30.15F
Mt Carmel AP   SUNNY     77  49  37 SW8       30.17S
Olney-Noble AP SUNNY     76  43  30 S8        30.18R
Paris AP       SUNNY     75  53  45 S8        30.17S
Peoria         SUNNY     75  53  46 SE3       30.12F
Pontiac        SUNNY     75  50  41 CALM      30.15S
Rantoul        SUNNY     77  54  44 CALM      30.15S
Robinson       SUNNY     75  50  41 SW6       30.18S
Springfield    SUNNY     79  52  38 SW8       30.13S
Taylorville    SUNNY     77  49  37 SW7       30.14S
$$

...REGIONAL REPORTS...


CITY           SKY/WX    TMP DP  RH WIND       PRES   REMARKS
Chicago O`Hare CLOUDY    64  26  23 E9        30.16S
Kankakee       CLOUDY    71  44  37 E3        30.17R
Moline         SUNNY     74  50  42 S7        30.09F
Mount Sterling SUNNY     76  52  44 S8        30.11S
Mount Vernon   SUNNY     76  53  44 SW9       30.17S
Pittsfield     SUNNY     76  52  42 S7        30.13F
Quincy         SUNNY     76  51  41 S6        30.11S
Rockford       PTSUNNY   70  32  24 SE7       30.15S
$$


CITY           SKY/WX    TMP DP  RH WIND       PRES   REMARKS
Burlington     SUNNY     76  56  49 SE7       30.09F
Cedar Rapids   MOSUNNY   72  44  36 SE12      30.07F
Des Moines     MOSUNNY   76  54  46 SE14      30.02F
Kirksville     SUNNY     74  55  51 S9        30.10S
Ottumwa        SUNNY     75  55  49 SE12      30.06F
St Louis       SUNNY     79  51  37 S6        30.14S
$$


CITY           SKY/WX    TMP DP  RH WIND       PRES   REMARKS
Terre Haute    SUNNY     73  51  46 S5        30.18S
Evansville     SUNNY     75  50  41 SW7       30.19S
Indianapolis   MOSUNNY   72  52  49 W9        30.18S
Lafayette      SUNNY     72  53  51 SW3       30.16S
Madison        PTSUNNY   67  34  29 S8        30.12S
Milwaukee      PTCLDY    63  31  30 S10       30.14F
$$






USA.gov is the U.S. government's official web portal to all federal, state and local government web resources and services.